Simultaneous Nadir Overpasses (SNOs) Predictions

Prediction of SNOs between GOES-17 and TERRA Satellite Orbit:

Table of predicted SNOs for the next 14.0 days since TLE Epoch: 7/24/2021
Index Date Time (GOES-17) GOES-17 Lat,Lon TERRA Lat,Lon Distance(km) Time Diff (sec)
1 07/24/2021 19:30:39 -0.00,-137.18 -0.33,-135.57 182.98 80
2 07/25/2021 07:49:22 0.01,-137.16 -0.76,-140.76 409.35 80
3 07/27/2021 07:37:09 0.02,-137.15 -0.13,-137.81 75.52 80
4 07/29/2021 07:27:37 0.02,-137.13 0.49,-134.85 258.33 80
5 07/29/2021 19:46:11 -0.02,-137.13 0.61,-140.01 327.66 80
6 07/31/2021 19:36:38 -0.02,-137.10 -0.02,-137.05 5.73 80
7 08/02/2021 19:24:25 -0.01,-137.07 -0.66,-134.10 338.50 80
8 08/03/2021 07:43:08 0.01,-137.05 -0.49,-139.28 254.01 80
9 08/05/2021 07:30:55 -0.01,-137.01 0.15,-136.33 78.05 80
